7L2IWN-13 Weather Reports


time (UTC)temp
C
wind
direction
speed
KPH
gust
KPH
rain 1hr
cm
rain 24hr
cm
rain mn
cm
humidity
%
barometer
mb
20260906144811 18 209 3.2 3.2 0.64 8.43 8.43 99 1011.2
20260906143612 18 209 3.2 3.2 0.64 8.43 8.43 99 1011.1
20260906142412 18 236 1.6 3.2 0.86 8.36 8.36 99 1011.2
20260906141211 18 245 3.2 3.2 0.89 8.15 8.15 99 1011.0
20260906140013 18 261 1.6 3.2 0.99 8.03 8.03 99 1011.6
20260906134812 18 252 1.6 1.6 1.04 7.95 7.95 99 1011.6
20260906133613 18 263 0.0 0.0 0.94 7.67 7.67 99 1011.9
20260906132411 18 292 1.6 3.2 0.99 7.47 7.47 99 1012.2
20260906131212 18 273 0.0 0.0 1.02 7.21 7.21 99 1012.3
20260906130013 18 273 0.0 0.0 1.04 7.04 7.04 99 1012.2
20260906124812 18 273 0.0 0.0 1.02 0.00 6.88 99 1012.4
20260906123613 18 274 0.0 0.0 0.91 0.00 6.63 99 1012.8
20260906122412 18 276 0.0 0.0 0.91 0.00 6.45 99 1012.9
20260906121213 18 263 0.0 0.0 0.69 0.00 6.15 99 1013.3
20260906120011 18 265 0.0 0.0 0.66 0.00 5.99 99 1013.0
20260906114813 18 258 0.0 1.6 0.56 0.00 5.84 99 1013.3
20260906113611 18 285 0.0 0.0 0.43 0.00 5.64 99 1013.7
20260906112413 17 294 0.0 0.0 0.48 0.00 5.54 99 1013.8
20260906111212 17 295 0.0 0.0 0.51 0.00 5.44 99 1013.5
20260906110011 17 296 0.0 0.0 0.51 0.00 5.33 99 1013.3
20260906104811 17 297 0.0 0.0 0.51 0.00 5.26 99 1013.4
20260906103611 18 284 0.0 0.0 0.48 0.00 5.16 99 1013.3
20260906102411 17 350 0.0 0.0 0.46 0.00 5.03 99 1013.7
20260906101213 18 350 0.0 0.0 0.38 0.00 4.90 99 1013.5
20260906100011 18 350 0.0 0.0 0.46 0.00 4.83 99 1013.7
20260906094811 17 350 0.0 0.0 0.46 0.00 4.75 99 1013.6
20260906093612 18 348 0.0 0.0 0.41 0.00 4.62 99 1013.6
20260906092412 18 344 0.0 0.0 0.51 0.00 4.57 99 1013.5
20260906091212 17 344 0.0 0.0 0.53 0.00 4.50 99 1013.7
20260906090011 17 359 0.0 0.0 0.43 0.00 4.37 99 1013.9
20260906084812 18 341 0.0 0.0 0.33 0.00 4.27 99 1013.7
20260906083612 18 341 0.0 0.0 0.23 0.00 4.17 99 1013.9
20260906082412 17 341 0.0 0.0 0.13 0.00 4.06 99 1013.8
20260906081213 18 341 0.0 0.0 0.33 0.00 3.94 99 1013.7
20260906080012 18 341 0.0 0.0 0.33 0.00 3.86 99 1013.9
20260906074811 18 342 0.0 0.0 0.36 0.00 3.78 99 1013.9
20260906073612 18 342 0.0 0.0 0.36 0.00 3.71 99 1013.9
20260906072411 18 342 0.0 0.0 0.41 0.00 3.66 99 1013.7
20260906071211 18 342 0.0 0.0 0.69 0.00 3.58 99 1013.6
20260906070012 18 341 0.0 0.0 0.61 0.00 3.51 99 1013.7
20260906064812 18 341 0.0 0.0 0.53 0.00 3.43 99 1013.6
20260906063611 18 341 0.0 0.0 0.43 0.00 3.33 99 1013.5
20260906062412 18 341 0.0 0.0 0.48 0.00 3.23 99 1013.9
20260906060011 18 340 0.0 0.0 0.58 0.00 2.90 99 1013.9
20260906054811 18 340 0.0 0.0 0.58 0.00 2.90 99 1013.9
20260906053612 18 340 0.0 0.0 0.51 0.00 2.79 99 1013.9
20260906052412 18 340 0.0 0.0 0.64 0.00 2.74 99 1014.3
20260906051211 17 337 0.0 0.0 0.64 0.00 2.64 99 1014.4
20260906050013 17 275 0.0 0.0 0.61 0.00 2.31 99 1014.3
20260906044811 17 275 0.0 0.0 0.61 0.00 2.31 99 1014.3
20260906043612 17 312 1.6 1.6 0.46 0.00 2.16 99 1014.3
20260906042411 17 304 3.2 3.2 0.97 0.00 2.11 99 1014.6
20260906041212 17 215 0.0 0.0 0.81 0.00 1.96 99 1014.5
20260906040013 17 220 0.0 1.6 0.71 0.00 1.85 99 1014.8
20260906034811 18 228 0.0 1.6 0.56 0.00 1.70 99 1014.8
20260906033611 18 254 0.0 0.0 0.53 0.00 1.65 99 1015.2
20260906031212 17 252 0.0 0.0 0.38 0.00 1.14 99 1015.4
20260906030012 17 252 0.0 0.0 0.38 0.00 1.14 99 1015.4
20260906024812 17 252 0.0 0.0 0.43 0.00 1.14 99 1015.5
20260906023612 17 48 0.0 0.0 0.41 0.00 1.07 99 1015.7
20260906022411 18 48 0.0 0.0 0.38 0.00 0.99 99 1015.8
20260906021211 17 44 0.0 0.0 0.41 0.00 0.91 99 1016.1
20260906020012 17 132 0.0 0.0 0.41 0.00 0.79 99 1016.3
20260906014813 17 74 0.0 0.0 0.61 0.00 0.71 99 1016.2
20260906013613 18 44 0.0 3.2 0.53 0.00 0.64 99 1016.2
20260906012413 17 84 3.2 6.4 0.48 0.00 0.58 99 1015.9
20260906011212 18 285 0.0 1.6 0.36 0.00 0.46 99 1015.9
20260906010012 18 244 0.0 0.0 0.28 0.00 0.38 99 1016.3
20260906000012 18 197 3.2 3.2 0.05 0.00 0.10 99 1016.4
20260905234813 18 197 3.2 3.2 0.05 0.00 0.10 99 1016.4
20260905233615 18 266 1.6 1.6 0.05 0.00 0.08 99 1016.2
20260905232413 18 233 0.0 1.6 0.05 0.00 0.08 99 1016.5
20260905231214 18 214 0.0 1.6 0.05 0.00 0.08 99 1016.3
20260905230012 18 274 0.0 1.6 0.05 0.00 0.05 99 1016.4
20260905224814 18 265 3.2 3.2 0.05 0.00 0.05 99 1016.4
20260905223612 18 243 1.6 3.2 0.03 0.00 0.03 99 1016.1
20260905222413 18 212 1.6 3.2 0.03 0.00 0.03 99 1016.1
20260905221213 18 221 1.6 3.2 0.00 0.00 0.00 99 1015.8
20260905220012 18 233 3.2 4.8 0.00 0.00 0.00 99 1015.8
20260905214812 18 257 1.6 3.2 0.00 0.00 0.00 99 1015.7
20260905213612 18 202 1.6 3.2 0.00 0.00 0.00 99 1015.8
20260905212414 18 239 0.0 1.6 0.00 0.00 0.00 99 1015.9
20260905211211 18 257 0.0 0.0 0.00 0.00 0.00 99 1015.7
20260905210013 18 225 1.6 1.6 0.00 0.00 0.00 99 1015.6
20260905204813 18 189 1.6 3.2 0.00 0.00 0.00 99 1015.7
20260905203613 18 218 1.6 3.2 0.00 0.00 0.00 99 1015.7
20260905202414 18 273 3.2 3.2 0.00 0.00 0.00 99 1015.5
20260905201215 18 205 1.6 3.2 0.00 0.00 0.00 99 1015.2
20260905200014 18 219 3.2 3.2 0.00 0.00 0.00 99 1015.4
20260905194812 18 242 3.2 3.2 0.00 0.00 0.00 99 1015.5
20260905193613 18 228 3.2 3.2 0.00 0.00 0.00 99 1015.5
20260905192414 18 223 0.0 3.2 0.00 0.00 0.00 99 1015.7
20260905191213 18 223 0.0 0.0 0.00 0.00 0.00 99 1015.5
20260905190013 18 225 1.6 3.2 0.00 0.00 0.00 99 1015.4
20260905184815 18 191 1.6 3.2 0.00 0.00 0.00 99 1015.5
20260905183614 18 201 3.2 4.8 0.00 0.00 0.00 99 1015.7
20260905182412 18 224 0.0 1.6 0.00 0.00 0.00 99 1015.6
20260905181212 18 231 3.2 3.2 0.00 0.00 0.00 99 1015.5
20260905180013 18 224 3.2 4.8 0.00 0.00 0.00 99 1015.7
20260905174813 18 223 1.6 3.2 0.00 0.00 0.00 99 1015.7
20260905173612 18 213 4.8 4.8 0.00 0.00 0.00 99 1015.7
20260905172414 18 267 3.2 3.2 0.00 0.00 0.00 99 1015.7
20260905171214 18 220 1.6 3.2 0.00 0.00 0.00 99 1015.7
20260905170012 18 212 3.2 3.2 0.00 0.00 0.00 99 1015.6
20260905164812 18 232 3.2 4.8 0.00 0.00 0.00 99 1015.5
20260905163614 18 208 1.6 3.2 0.00 0.00 0.00 99 1015.7
20260905162413 18 197 3.2 4.8 0.00 0.00 0.00 99 1015.6
20260905161212 18 244 4.8 6.4 0.00 0.00 0.00 99 1015.2
20260905160012 18 223 4.8 6.4 0.00 0.00 0.00 99 1015.7
20260905154814 18 191 3.2 4.8 0.00 0.00 0.00 99 1015.4